This is the latest recevied weather packets stored in our database for station/object IW4EMA-3. If no packets are shown the sender has not sent any weather packets the latest 10 day(s).
| Time | Temp. | Humidity | Pressure | Rain* | Wind** | Luminosity | Snow |
|---|---|---|---|---|---|---|---|
| 1777531160 | 12.78° C | 75% | 1023.4 hPa | 1.02 mm | - | 147 W/m² | - |
| 1777530568 | 12.78° C | 76% | 1023.4 hPa | 1.02 mm | - | 122 W/m² | - |
| 1777526966 | 11.11° C | 81% | 1022.6 hPa | 1.02 mm | - | 45 W/m² | - |
| 1777525767 | 11.11° C | 81% | 1022.5 hPa | 1.02 mm | - | 56 W/m² | - |
| 1777525199 | 11.11° C | 81% | 1022.2 hPa | 1.02 mm | - | 34 W/m² | - |
| 1777521559 | 11.11° C | 83% | 1021.8 hPa | 1.02 mm | - | 1 W/m² | - |
| 1777515798 | 11.67° C | 84% | 1021 hPa | 1.02 mm | - | 0 W/m² | - |
| 1777512826 | 12.78° C | 83% | 1021 hPa | 1.02 mm | - | 0 W/m² | - |
| 1777512198 | 12.78° C | 84% | 1021 hPa | 1.02 mm | - | 0 W/m² | - |
| 1777508599 | 13.33° C | 86% | 1020.5 hPa | 0.76 mm | - | 0 W/m² | - |
| 1777506826 | 13.33° C | 86% | 1020.3 hPa | 0.76 mm | - | 0 W/m² | - |
| 1777504998 | 13.33° C | 87% | 1020.2 hPa | 0.76 mm | - | 0 W/m² | - |
| 1777503819 | 13.33° C | 89% | 1020.3 hPa | 0.76 mm | - | 0 W/m² | - |
| 1777498407 | 13.89° C | 91% | 1019.5 hPa | 0 mm | - | 0 W/m² | - |
| 1777494199 | 15.56° C | 78% | 1018.5 hPa | 0 mm | - | 0 W/m² | - |
| 1777491207 | 16.11° C | 74% | 1018 hPa | 0 mm | - | 0 W/m² | - |
| 1777488199 | 16.67° C | 71% | 1017.3 hPa | 0 mm | - | 0 W/m² | - |
| 1777487626 | 16.67° C | 69% | 1017.2 hPa | 0 mm | - | 0 W/m² | - |
| 1777485800 | 17.22° C | 68% | 1016.9 hPa | 0 mm | - | 7 W/m² | - |
| 1777485207 | 17.22° C | 67% | 1016.6 hPa | 0 mm | - | 13 W/m² | - |
| 1777484600 | 17.78° C | 66% | 1016.6 hPa | 0 mm | - | 17 W/m² | - |
| 1777484013 | 17.78° C | 65% | 1016.5 hPa | 0 mm | - | 29 W/m² | - |
| 1777466048 | 22.22° C | 52% | 1015.9 hPa | 0 mm | - | 591 W/m² | - |
| 1777462408 | 22.22° C | 55% | 1015.9 hPa | 0 mm | - | 352 W/m² | - |
| 1777460007 | 22.22° C | 59% | 1016.1 hPa | 0 mm | - | 387 W/m² | - |
* Rain latest 24 hours (hover to see other rain measurements)
** Current wind speed in m/s (hover to see current wind gust speed)